Flag for France Weather past 2 weeks in Villeurbanne, France

Now
50 °F

Fog.


Feels Like: 50 °F
Forecast: 49 / 55 °F
Wind: 2 mph from North

Location: Lyon / Bron

Current Time: Dec 19, 2014 at 12:21:17 AM

Latest Report: Dec 19, 2014 at 12:00 AM


Visibility: 2 mi

Pressure: 30.33 "Hg

Humidity: 94%

Dew point: 48 °F

Location of VilleurbanneLocation

Historic Weather in Villeurbanne — Graph

°F

Villeurbanne temperature yesterday

Maximum temperature yesterday: 52 °F (at 2:00 PM)
Minimum temperature yesterday: 45 °F (at 12:00 AM)
Average temperature yesterday: 48 °F

Past Weeks' High & Low Weather Summary

 TemperatureHumidityPressure
High57 °F (Dec 13, 11:30 AM)100% (Dec 11, 9:00 AM)30.45 "Hg (Dec 11, 9:00 AM)
Low30 °F (Dec 10, 2:30 AM)55% (Dec 13, 11:30 AM)29.83 "Hg (Dec 13, 4:30 AM)
Average44 °F80%30.11 "Hg
* Reported Dec 3 11:00 PM — Dec 18 11:00 PM, Villeurbanne, Weather by CustomWeather, © 2014

Note: Actual official high and low records may vary slightly from our data, if they occured in-between our weather recording intervals... More about our weather records

Advertising

Villeurbanne weather history for previous 24 hours

 ConditionsComfort  
Time TempWeatherWind HumidityBarometerVisibility
11:00 PM
Dec 18
50 °FFog.1 mph94%30.33 "Hg2 mi
10:30 PM50 °FFog.2 mph94%30.33 "Hg3 mi
10:00 PM50 °FFog.No wind94%30.33 "Hg2 mi
9:30 PM50 °FFog.1 mph94%30.33 "Hg2 mi
9:00 PM50 °FFog.No wind94%30.33 "Hg2 mi
8:30 PM50 °FFog.2 mph94%30.30 "Hg2 mi
8:00 PM50 °FFog.2 mph94%30.30 "Hg3 mi
7:30 PM50 °FPassing clouds.1 mph94%30.30 "Hg4 mi
7:00 PM50 °FMostly cloudy.3 mph94%30.30 "Hg4 mi
6:30 PM50 °FMostly cloudy.3 mph94%30.30 "Hg4 mi
6:00 PM50 °FMostly cloudy.2 mph94%30.27 "Hg5 mi
5:30 PM50 °FLight rain. Overcast.2 mph94%30.27 "Hg4 mi
5:00 PM52 °FFog.3 mph88%30.27 "Hg3 mi
4:30 PM52 °FOvercast.3 mph88%30.27 "Hg4 mi
4:00 PM52 °FMore clouds than sun.5 mph88%30.24 "Hg5 mi
3:30 PM52 °FMostly cloudy.2 mph94%30.24 "HgN/A
3:00 PM52 °FPartly sunny.2 mph94%30.24 "HgN/A
2:30 PM52 °FMostly cloudy.2 mph94%30.24 "Hg6 mi
2:00 PM52 °FLow clouds.No wind94%30.24 "HgN/A
1:30 PM50 °FLow clouds.1 mph94%30.24 "Hg4 mi
1:00 PM50 °FLow clouds.2 mph94%30.24 "Hg4 mi
12:30 PM48 °FFog.2 mph100%30.24 "Hg2 mi
12:00 PM48 °FFog.2 mph94%30.21 "Hg3 mi
11:30 AM48 °FLight rain. Fog.No wind94%30.24 "Hg2 mi
11:00 AM48 °FLight rain. Fog.No wind94%30.21 "Hg1 mi
10:30 AM46 °FLight rain. Fog.No wind93%30.21 "Hg1 mi
10:00 AM46 °FLight rain. Fog.No wind93%30.21 "Hg1 mi
9:30 AM46 °FLight rain. Fog.No wind93%30.18 "Hg1 mi
9:00 AM46 °FLight rain. Fog.1 mph93%30.18 "Hg1 mi
8:30 AM45 °FLight rain. Fog.No wind100%30.18 "Hg1 mi
8:00 AM45 °FLight rain. Fog.No wind93%30.15 "Hg1 mi
7:30 AM45 °FLight rain. Fog.2 mph93%30.15 "Hg2 mi
7:00 AM45 °FLight rain. Fog.2 mph93%30.15 "Hg3 mi
6:30 AM45 °FRain. Fog.No wind93%30.12 "Hg1 mi
6:00 AM45 °FLight rain. Fog.2 mph93%30.12 "Hg3 mi
5:30 AM45 °FLight rain. Fog.No wind93%30.12 "Hg1 mi
4:30 AM45 °FLight rain. Fog.2 mph93%30.12 "Hg3 mi
4:00 AM45 °FLight rain. Fog.No wind93%30.12 "Hg2 mi
3:30 AM45 °FLight rain. Fog.1 mph93%30.12 "Hg2 mi
3:00 AM45 °FRain. Fog.1 mph93%30.12 "Hg2 mi
2:30 AM45 °FLight rain. Fog.1 mph93%30.12 "Hg2 mi
2:00 AM45 °FLight rain. Fog.No wind93%30.12 "Hg1 mi
1:30 AM45 °FLight rain. Fog.No wind93%30.09 "Hg1 mi
1:00 AM45 °FLight rain. Fog.1 mph93%30.09 "Hg2 mi
12:30 AM45 °FLight rain. Fog.2 mph93%30.09 "Hg2 mi
12:00 AM45 °FLight rain. Fog.5 mph93%30.09 "Hg2 mi
Weather by CustomWeather, © 2014

See weather overviewHow to use our weather pages